This is the latest recevied weather packets stored in our database for station/object KM4KMS. If no packets are shown the sender has not sent any weather packets the latest 10 day(s).
| Time | Temp. | Humidity | Pressure | Rain* | Wind** | Luminosity | Snow |
|---|---|---|---|---|---|---|---|
| 1777486489 | 15.56° C | 86% | 1010.6 hPa | 0 mm | - | 469 W/m² | - |
| 1777486186 | 15.56° C | 89% | 1010.7 hPa | 0 mm | - | 314 W/m² | - |
| 1777485884 | 15.56° C | 91% | 1010.9 hPa | 0 mm | - | 418 W/m² | - |
| 1777485579 | 15° C | 91% | 1010.8 hPa | 0 mm | - | 216 W/m² | - |
| 1777485275 | 15.56° C | 93% | 1010.7 hPa | 0 mm | - | 232 W/m² | - |
| 1777484972 | 15.56° C | 92% | 1010.9 hPa | 0 mm | - | 895 W/m² | - |
| 1777484669 | 14.44° C | 95% | 1010.9 hPa | 0 mm | - | 416 W/m² | - |
| 1777484365 | 14.44° C | 96% | 1010.4 hPa | 0 mm | - | 253 W/m² | - |
| 1777484061 | 14.44° C | 96% | 1010.6 hPa | 0 mm | - | 133 W/m² | - |
| 1777483757 | 15° C | 96% | 1010.6 hPa | 0 mm | - | 138 W/m² | - |
| 1777483454 | 15° C | 95% | 1010.5 hPa | 0 mm | - | 417 W/m² | - |
| 1777483149 | 15° C | 96% | 1010 hPa | 0 mm | - | 138 W/m² | - |
| 1777482846 | 15° C | 99% | 1009.9 hPa | 0 mm | - | 1122 W/m² | - |
| 1777482542 | 14.44° C | 99% | 1010 hPa | 0 mm | - | 491 W/m² | - |
| 1777482239 | 14.44° C | 99% | 1010 hPa | 0 mm | - | 308 W/m² | - |
| 1777481936 | 14.44° C | 99% | 1010 hPa | 0 mm | - | 194 W/m² | - |
| 1777481634 | 14.44° C | 99% | 1009.9 hPa | 0 mm | - | 180 W/m² | - |
| 1777481331 | 14.44° C | 99% | 1009.9 hPa | 0 mm | - | 225 W/m² | - |
| 1777481028 | 14.44° C | 99% | 1010 hPa | 0 mm | - | 200 W/m² | - |
| 1777480724 | 15° C | 99% | 1010 hPa | 0 mm | - | 152 W/m² | - |
| 1777480421 | 15° C | 99% | 1010.1 hPa | 0 mm | - | 209 W/m² | - |
| 1777480117 | 15.56° C | 99% | 1009.9 hPa | 0 mm | - | 238 W/m² | - |
| 1777479813 | 15.56° C | 99% | 1009.8 hPa | 0 mm | - | 141 W/m² | - |
| 1777479511 | 15.56° C | 99% | 1009.4 hPa | 0 mm | - | 152 W/m² | - |
| 1777479208 | 15.56° C | 99% | 1009.8 hPa | 0 mm | - | 146 W/m² | - |
* Rain latest hour (hover to see other rain measurements)
** Current wind speed in m/s (hover to see current wind gust speed)